Location: Apeadero de Los Molinos-Guadarrama
(40.7091°N, 4.0689°W)
Time: 09:11:49
(UTC+00:00)

X-37B - Pass Details

Date: 30 September 2021
Orbit: 445 x 447 km, 45.0° (Epoch: 24 October)

Event Time Altitude Azimuth Distance (km) Brightness Sun altitude
Exits shadow 03:50:00 26° 51° (NE) 913 3.0 -27.2°
Drops below altitude 10° 03:51:55 10° 72° (ENE) 1,566 4.6 -26.8°
Enters shadow 04:48:30 -69° 279° (W) 12,419 8.1 -16.6°
Maximum altitude 05:26:48 73° 19° (NNE) 468 1.0 -9.4°
